This is the latest recevied weather packets stored in our database for station/object IZ1UQG-N2. If no packets are shown the sender has not sent any weather packets the latest 10 day(s).
| Time | Temp. | Humidity | Pressure | Rain* | Wind** | Luminosity | Snow |
|---|---|---|---|---|---|---|---|
| 1787821923 | 25° C | 72% | 1015.8 hPa | 0 mm | - | 153 W/m² | - |
| 1787821863 | 25° C | 71% | 1015.8 hPa | 0 mm | - | 165 W/m² | - |
| 1787821803 | 25° C | 72% | 1015.8 hPa | 0 mm | - | 171 W/m² | - |
| 1787821742 | 25° C | 72% | 1015.8 hPa | 0 mm | - | 174 W/m² | - |
| 1787821682 | 25° C | 71% | 1015.7 hPa | 0 mm | - | 174 W/m² | - |
| 1787821623 | 25° C | 71% | 1015.8 hPa | 0 mm | - | 169 W/m² | - |
| 1787821563 | 25.56° C | 71% | 1015.9 hPa | 0 mm | - | 165 W/m² | - |
| 1787821503 | 25.56° C | 71% | 1015.8 hPa | 0 mm | - | 171 W/m² | - |
| 1787821442 | 25° C | 72% | 1015.8 hPa | 0 mm | - | 109 W/m² | - |
| 1787821383 | 25° C | 72% | 1015.8 hPa | 0 mm | - | 176 W/m² | - |
| 1787821323 | 25° C | 72% | 1015.8 hPa | 0 mm | - | 181 W/m² | - |
| 1787821263 | 25° C | 72% | 1015.8 hPa | 0 mm | - | 262 W/m² | - |
| 1787821203 | 25° C | 72% | 1015.8 hPa | 0 mm | - | 211 W/m² | - |
| 1787821142 | 25° C | 72% | 1015.9 hPa | 0 mm | - | 190 W/m² | - |
| 1787821083 | 25° C | 72% | 1015.8 hPa | 0 mm | - | 185 W/m² | - |
| 1787821022 | 25° C | 71% | 1015.9 hPa | 0 mm | - | 181 W/m² | - |
| 1787820962 | 25° C | 71% | 1015.9 hPa | 0 mm | - | 179 W/m² | - |
| 1787820902 | 25° C | 72% | 1015.9 hPa | 0 mm | - | 186 W/m² | - |
| 1787820843 | 25° C | 72% | 1015.9 hPa | 0 mm | - | 197 W/m² | - |
| 1787820782 | 25° C | 71% | 1016 hPa | 0 mm | - | 295 W/m² | - |
| 1787820722 | 25° C | 72% | 1015.9 hPa | 0 mm | - | 251 W/m² | - |
| 1787820662 | 25° C | 72% | 1016.1 hPa | 0 mm | - | 265 W/m² | - |
| 1787820602 | 25° C | 73% | 1016 hPa | 0 mm | - | 262 W/m² | - |
| 1787820543 | 25° C | 73% | 1016.1 hPa | 0 mm | - | 264 W/m² | - |
| 1787820482 | 25° C | 73% | 1016 hPa | 0 mm | - | 269 W/m² | - |
* Rain latest hour (hover to see other rain measurements)
** Current wind speed in m/s (hover to see current wind gust speed)